When you browse on this site, cookies collect data to enhance your experience and personalize the content and advertising you see.
Visit our Privacy Policy to learn more. By continuing to use the site, you agree to this use of cookies and data.
  • In Lithuania
  • List of Countries
  • For 7 days
  • Water Temperature
  • Satellite Maps
  • Weather Map
  • Weather Widgets
  • user-avatar
    Login

    Hourly Weather Rybackiy

    Today, 11 December, Tuesday

    Time Temperature Precipitation Wind Pressure Humidity
    00:00 +2°C° 0.4 mm 5 mps 758 mmHg 93%
    01:00 +2°C° 0 mm 5 mps 758 mmHg 93%
    02:00 +2°C° 0 mm 5 mps 758 mmHg 93%
    03:00 +2°C° 0 mm 3 mps 757 mmHg 95%
    04:00 +2°C° 0 mm 3 mps 757 mmHg 95%
    05:00 +1°C° 0 mm 4 mps 757 mmHg 95%
    06:00 +1°C° 0 mm 5 mps 757 mmHg 95%
    07:00 +1°C° 0 mm 5 mps 757 mmHg 95%
    08:00 +1°C° 0 mm 5 mps 757 mmHg 95%
    09:00 +1°C° 0 mm 5 mps 757 mmHg 95%
    10:00 +1°C° 0 mm 6 mps 756 mmHg 93%
    11:00 +2°C° 0 mm 6 mps 756 mmHg 92%
    12:00 +2°C° 0 mm 7 mps 756 mmHg 90%
    13:00 +2°C° 0 mm 7 mps 756 mmHg 90%
    14:00 +3°C° 0 mm 7 mps 755 mmHg 89%
    15:00 +2°C° 0 mm 5 mps 755 mmHg 89%
    16:00 +2°C° 0.3 mm 5 mps 755 mmHg 90%
    17:00 +2°C° 0.3 mm 5 mps 755 mmHg 91%
    18:00 +2°C° 0.3 mm 6 mps 756 mmHg 92%
    19:00 +2°C° 0.7 mm 6 mps 755 mmHg 93%
    20:00 +2°C° 0.7 mm 6 mps 755 mmHg 93%
    21:00 +2°C° 0.7 mm 7 mps 755 mmHg 94%
    22:00 +2°C° 0 mm 6 mps 755 mmHg 93%
    23:00 +3°C° 0 mm 6 mps 755 mmHg 93%

    Tomorrow, 12 December, Wednesday

    Time Temperature Precipitation Wind Pressure Humidity
    00:00 +3°C° 0 mm 6 mps 755 mmHg 93%
    01:00 +3°C° 0 mm 6 mps 755 mmHg 92%
    02:00 +3°C° 0 mm 7 mps 754 mmHg 91%
    03:00 +4°C° 0 mm 7 mps 754 mmHg 89%
    04:00 +4°C° 0.1 mm 7 mps 754 mmHg 87%
    05:00 +4°C° 0.1 mm 7 mps 754 mmHg 86%
    06:00 +5°C° 0.1 mm 7 mps 754 mmHg 84%
    07:00 +4°C° 0 mm 7 mps 754 mmHg 83%
    08:00 +4°C° 0 mm 7 mps 754 mmHg 82%
    09:00 +4°C° 0 mm 7 mps 755 mmHg 81%
    10:00 +4°C° 0 mm 7 mps 755 mmHg 78%
    11:00 +4°C° 0 mm 7 mps 755 mmHg 75%
    12:00 +4°C° 0 mm 8 mps 755 mmHg 72%
    13:00 +4°C° 0 mm 7 mps 756 mmHg 73%
    14:00 +4°C° 0 mm 7 mps 756 mmHg 74%
    15:00 +4°C° 0 mm 6 mps 756 mmHg 75%
    16:00 +3°C° 0 mm 6 mps 757 mmHg 77%
    17:00 +3°C° 0 mm 6 mps 757 mmHg 79%
    18:00 +2°C° 0 mm 5 mps 758 mmHg 80%
    19:00 +2°C° 0 mm 5 mps 758 mmHg 82%
    20:00 +2°C° 0 mm 5 mps 758 mmHg 83%
    21:00 +3°C° 0 mm 4 mps 759 mmHg 84%
    22:00 +3°C° 0 mm 4 mps 759 mmHg 84%
    23:00 +1°C° 0 mm 4 mps 760 mmHg 85%

    Day after tomorrow, 13 December, Thursday

    Time Temperature Precipitation Wind Pressure Humidity
    00:00 +1°C° 0 mm 4 mps 760 mmHg 85%
    01:00 +1°C° 0 mm 4 mps 760 mmHg 85%
    02:00 +2°C° 0 mm 3 mps 761 mmHg 86%
    03:00 +2°C° 0 mm 3 mps 761 mmHg 86%
    04:00 +1°C° 0 mm 3 mps 761 mmHg 87%
    05:00 +1°C° 0 mm 3 mps 761 mmHg 87%
    06:00 +1°C° 0 mm 3 mps 762 mmHg 87%
    07:00 +1°C° 0 mm 3 mps 762 mmHg 87%
    08:00 +1°C° 0 mm 3 mps 763 mmHg 87%
    09:00 +2°C° 0 mm 2 mps 763 mmHg 87%
    10:00 +2°C° 0 mm 3 mps 763 mmHg 82%
    11:00 +1°C° 0 mm 4 mps 764 mmHg 76%
    12:00 +3°C° 0 mm 4 mps 764 mmHg 71%
    13:00 +3°C° 0 mm 4 mps 764 mmHg 70%
    14:00 +3°C° 0 mm 4 mps 764 mmHg 70%
    15:00 +4°C° 0 mm 3 mps 765 mmHg 69%
    16:00 +3°C° 0 mm 3 mps 765 mmHg 72%
    17:00 +2°C° 0 mm 3 mps 765 mmHg 75%
    18:00 +3°C° 0 mm 2 mps 766 mmHg 78%
    19:00 +2°C° 0 mm 2 mps 766 mmHg 80%
    20:00 +2°C° 0 mm 2 mps 766 mmHg 81%
    21:00 +2°C° 0 mm 2 mps 767 mmHg 82%
    22:00 +2°C° 0 mm 2 mps 767 mmHg 83%
    23:00 +2°C° 0 mm 2 mps 767 mmHg 84%

    14 December, Friday

    Time Temperature Precipitation Wind Pressure Humidity
    00:00 +2°C° 0 mm 1 mps 767 mmHg 85%
    01:00 +2°C° 0 mm 1 mps 767 mmHg 85%
    02:00 +2°C° 0 mm 1 mps 768 mmHg 85%
    03:00 +2°C° 0 mm 1 mps 768 mmHg 84%
    04:00 +2°C° 0 mm 1 mps 768 mmHg 84%
    05:00 +1°C° 0 mm 2 mps 768 mmHg 84%
    06:00 +1°C° 0 mm 2 mps 768 mmHg 83%
    07:00 +1°C° 0 mm 2 mps 768 mmHg 83%
    08:00 +1°C° 0 mm 2 mps 768 mmHg 83%
    09:00 +1°C° 0 mm 2 mps 768 mmHg 83%
    10:00 +2°C° 0 mm 2 mps 768 mmHg 80%
    11:00 +3°C° 0 mm 2 mps 768 mmHg 77%
    12:00 +4°C° 0 mm 2 mps 768 mmHg 74%
    13:00 +5°C° 0 mm 2 mps 768 mmHg 75%
    14:00 +6°C° 0 mm 1 mps 768 mmHg 76%
    15:00 +6°C° 0 mm 1 mps 768 mmHg 77%
    16:00 +5°C° 0 mm 1 mps 768 mmHg 80%
    17:00 +3°C° 0 mm 0 mps 768 mmHg 83%
    18:00 +3°C° 0 mm 0 mps 769 mmHg 86%
    19:00 +2°C° 0 mm 0 mps 769 mmHg 87%
    20:00 +2°C° 0 mm 0 mps 769 mmHg 87%
    21:00 +2°C° 0 mm 0 mps 769 mmHg 88%
    22:00 +2°C° 0 mm 0 mps 769 mmHg 88%
    23:00 +2°C° 0 mm 0 mps 769 mmHg 88%

    15 December, Saturday

    Time Temperature Precipitation Wind Pressure Humidity
    00:00 +2°C° 0 mm 0 mps 770 mmHg 89%
    01:00 +2°C° 0 mm 0 mps 770 mmHg 89%
    02:00 +1°C° 0 mm 0 mps 770 mmHg 89%
    03:00 +1°C° 0 mm 0 mps 770 mmHg 90%
    04:00 +1°C° 0 mm 0 mps 770 mmHg 90%
    05:00 +2°C° 0 mm 1 mps 770 mmHg 90%
    06:00 +2°C° 0 mm 1 mps 771 mmHg 90%
    07:00 +2°C° 0 mm 1 mps 771 mmHg 90%
    08:00 +1°C° 0 mm 0 mps 771 mmHg 89%
    09:00 +1°C° 0 mm 0 mps 771 mmHg 89%
    10:00 +3°C° 0 mm 1 mps 772 mmHg 83%
    11:00 +4°C° 0 mm 1 mps 772 mmHg 78%
    12:00 +5°C° 0 mm 1 mps 772 mmHg 72%
    13:00 +5°C° 0 mm 1 mps 772 mmHg 72%
    14:00 +5°C° 0 mm 1 mps 772 mmHg 72%
    15:00 +5°C° 0 mm 1 mps 772 mmHg 72%
    16:00 +4°C° 0 mm 1 mps 772 mmHg 75%
    17:00 +3°C° 0 mm 1 mps 772 mmHg 79%
    18:00 +3°C° 0 mm 1 mps 773 mmHg 82%
    19:00 +2°C° 0 mm 1 mps 773 mmHg 83%
    20:00 +2°C° 0 mm 1 mps 773 mmHg 84%
    21:00 +2°C° 0 mm 1 mps 773 mmHg 86%
    22:00 +1°C° 0 mm 2 mps 773 mmHg 86%
    23:00 -1°C° 0 mm 2 mps 773 mmHg 87%

    16 December, Sunday

    Time Temperature Precipitation Wind Pressure Humidity
    00:00 -1°C° 0 mm 2 mps 773 mmHg 88%
    01:00 -1°C° 0 mm 2 mps 773 mmHg 89%
    02:00 -1°C° 0 mm 2 mps 774 mmHg 89%
    03:00 -1°C° 0 mm 2 mps 774 mmHg 89%
    04:00 -1°C° 0 mm 3 mps 774 mmHg 89%
    05:00 -1°C° 0 mm 3 mps 774 mmHg 89%
    06:00 -2°C° 0 mm 3 mps 774 mmHg 88%
    07:00 -2°C° 0 mm 3 mps 774 mmHg 87%
    08:00 -2°C° 0 mm 3 mps 774 mmHg 86%
    09:00 -3°C° 0 mm 4 mps 774 mmHg 85%
    10:00 -2°C° 0 mm 4 mps 774 mmHg 81%
    11:00 -1°C° 0 mm 4 mps 774 mmHg 77%
    12:00 -1°C° 0 mm 4 mps 774 mmHg 73%
    13:00 -1°C° 0 mm 4 mps 774 mmHg 73%
    14:00 -1°C° 0 mm 4 mps 774 mmHg 72%
    15:00 -1°C° 0 mm 4 mps 774 mmHg 72%
    16:00 -1°C° 0 mm 4 mps 774 mmHg 75%
    17:00 -2°C° 0 mm 4 mps 774 mmHg 78%
    18:00 -3°C° 0 mm 4 mps 774 mmHg 81%
    19:00 -3°C° 0 mm 4 mps 774 mmHg 81%
    20:00 -3°C° 0 mm 4 mps 774 mmHg 81%
    21:00 -3°C° 0 mm 4 mps 774 mmHg 82%
    22:00 -3°C° 0 mm 4 mps 774 mmHg 82%
    23:00 -3°C° 0 mm 4 mps 774 mmHg 81%
    Show more